#timestamp,LO_Frequency,Hit 
1499922015.2,286046993.4,N
1499922035.1,286046992.3,N
1499922036.0,286046992.3,N
1499922055.8,286046991.8,N
1499922075.6,286046991.7,N
1499922095.5,286046990.9,N
1499922115.3,286046989.0,N
1499922135.1,286046989.9,N
1499922155.9,286046994.7,N
1499922175.7,286046993.5,N
1499922195.5,286046990.4,N
1499922215.4,286046996.7,N
1499922235.2,286046999.1,N
1499922255.0,286046998.7,N
1499922255.9,286046998.7,N
1499922275.7,286046994.9,N
1499922295.6,286046995.6,N
1499922315.4,286046993.5,N
1499922335.2,286046993.3,N
1499922355.1,286046992.4,N
1499922356.0,286046992.4,N
1499922375.8,286046991.1,N
1499922395.8,286046990.3,N
1499922415.6,286046993.0,N
1499922435.5,286046996.2,N
1499922455.3,286046996.1,N
1499922475.1,286046996.1,N
1499922495.8,286046993.3,N
1499922515.7,286046995.3,N
1499922535.5,286046995.0,N
1499922555.3,286046995.0,N
1499922575.2,286046995.8,N
1499922595.9,286046997.3,N
1499922615.7,286046995.1,N
1499922635.6,286046997.8,N
1499922655.4,286046996.0,N
1499922675.2,286046996.3,N
1499922695.1,286046993.4,N
1499922696.0,286046993.4,N
1499922715.8,286046992.2,N
1499922735.6,286046991.8,N
1499922755.5,286046994.5,N
1499922775.3,286046994.4,N
1499922795.1,286046993.9,N
1499922815.8,286046993.9,N
1499922835.7,286046992.0,N
1499922855.5,286046996.4,N
1499922875.3,286046992.3,N
1499922895.2,286046995.3,N
1499922915.9,286046995.6,N
1499922935.7,286046995.2,N
1499922955.6,286046993.8,N
1499922975.4,286046993.6,N
1499922995.2,286046993.8,N
1499923015.1,286046995.8,N
1499923016.0,286046995.8,N
1499923035.8,286046997.5,N
1499923055.6,286046996.0,N
1499923075.4,286046994.6,N
1499923095.3,286046993.7,N
1499923115.1,286046996.1,N
1499923135.8,286046993.8,N
1499923155.7,286046991.7,N
1499923175.5,286046993.8,N
1499923195.3,286046994.6,N
1499923215.2,286046995.6,N
1499923235.9,286046997.0,N
1499923255.7,286046999.3,N
1499923275.6,286046997.4,N
1499923295.4,286046995.9,N
1499923315.2,286046995.7,N
1499923335.0,286046996.6,N
1499923336.0,286046996.6,N
1499923355.8,286046995.4,N
1499923375.6,286046997.5,N
1499923395.4,286046999.4,N
1499923415.3,286047002.6,N
1499923435.1,286047001.0,N
1499923455.8,286046999.5,N
1499923475.7,286047001.2,N
1499923495.5,286046998.2,N
1499923515.3,286046999.5,N
1499923535.2,286046995.0,N
1499923555.9,286046993.5,N
1499923575.7,286046994.0,N
1499923595.6,286046992.9,N
1499923615.4,286046992.5,N
1499923635.2,286046991.7,Y
1499923655.1,286046999.3,N
1499923656.0,286046999.3,N
1499923675.8,286046997.4,N
1499923695.6,286046995.1,N
1499923715.4,286046995.1,N
1499923735.3,286046993.3,N
1499923755.1,286046995.1,N
1499923775.8,286046995.0,N
1499923795.7,286046995.6,N
1499923815.5,286046996.4,N
1499923835.3,286046994.7,N
1499923855.2,286046994.8,N
1499923875.9,286046993.5,N
1499923895.7,286046996.1,N
1499923915.6,286046993.6,N
1499923935.4,286046996.1,N
1499923955.2,286046995.8,N
1499923975.0,286046999.4,N
1499923975.9,286046999.4,N
1499923995.8,286046996.5,N
1499924015.6,286046997.0,N
1499924035.4,286046998.7,N
1499924055.2,286047000.8,N
1499924075.0,286047000.7,N
1499924075.9,286047000.7,N
1499924095.8,286047002.5,N
1499924115.6,286047000.5,N
1499924135.4,286046996.5,N
1499924155.3,286046998.5,N
1499924175.1,286047001.1,N
1499924176.0,286047001.1,N
1499924195.8,286047003.6,N
1499924215.7,286047001.5,N
1499924235.5,286047000.5,N
1499924255.3,286047002.4,N
1499924275.2,286046999.8,N
1499924295.9,286046998.1,N
1499924315.7,286046999.3,N
1499924335.5,286046998.4,N
1499924355.4,286046996.8,N
1499924375.2,286046996.5,N
1499924395.0,286047000.7,N
1499924395.9,286047000.7,N
1499924415.8,286046998.4,N
1499924435.6,286046996.8,N
1499924455.4,286046995.0,N
1499924475.3,286046997.9,N
1499924495.1,286046997.7,N
1499924496.0,286046997.7,N
1499924515.8,286046999.5,N
1499924535.7,286047001.2,N
1499924555.5,286046999.0,N
1499924575.3,286047001.2,N
1499924595.1,286047003.5,N
1499924615.9,286047002.6,N
1499924635.7,286047002.5,N
1499924655.5,286047001.3,N
1499924675.4,286047003.4,N
1499924695.2,286047003.1,N
1499924715.0,286047003.0,N
1499924715.9,286047003.0,N
1499924735.8,286047005.1,N
1499924755.6,286047002.8,N
1499924775.4,286047001.6,N
1499924795.3,286047005.3,N
1499924815.1,286047009.2,N
1499924816.0,286047009.2,N
1499924835.8,286047008.5,N
1499924855.7,286047008.0,N
1499924875.5,286047010.0,N
1499924895.3,286047012.3,Y
1499924915.2,286047006.4,N
1499924935.9,286047004.5,N
1499924955.7,286047005.8,N
1499924975.5,286047004.5,N
1499924995.4,286047005.4,N
1499925015.2,286047003.4,N
1499925035.0,286047003.4,N
1499925035.9,286047003.4,N
1499925055.8,286047002.3,N
1499925075.6,286047002.3,N
1499925095.4,286047001.3,N
1499925115.3,286047004.8,N
1499925135.1,286047003.0,N
1499925136.0,286047003.0,N
1499925155.8,286047001.4,N
1499925175.7,286047002.6,N
1499925195.5,286047002.2,N
1499925215.3,286047001.8,N
1499925235.1,286047001.4,N
1499925255.9,286047002.3,N
1499925275.7,286047001.2,N
1499925295.5,286046998.6,N
1499925315.4,286046998.9,N
1499925335.2,286046996.6,N
1499925355.0,286046997.5,N
1499925355.9,286046997.5,N
1499925375.8,286047000.7,N
1499925395.6,286047000.0,N
1499925415.4,286047004.1,N
1499925435.3,286047003.9,N
1499925455.1,286047002.7,N
1499925456.0,286047002.7,N
1499925475.8,286047003.6,N
1499925495.7,286047006.9,N
1499925515.5,286047004.3,N
1499925535.3,286047002.9,N
1499925555.1,286047002.5,N
1499925575.9,286046999.9,N
1499925595.7,286047002.7,N
